Wind_Gust
6 4 6 5 5 5 5 6 5 4 4 4 3 6 6 8 8 8 9 10 8 9 8 9 9 9 10 9 9 9 9 9 9 9 8 9 9 9 11 10 10 9
6 5 3 3 4 5 4 5 3 4 4 4 5 5 6 6 9 6 10 8 8 10 10 9 9 9 9 9 9 9 10 11 11 9 8 9 8 7 9 9 9 9
3 3 4 5 5 5 6 3 4 5 4 6 5 4 7 6 7 7 8 7 11 11 10 9 9 9 10 10 9 9 9 9 12 11 7 8 7 8 8 8 9 9
4 4 4 4 4 4 3 6 3 4 4 6 5 6 5 6 6 6 7 9 9 9 8 9 9 10 10 10 10 10 9 8 8 8 8 8 9 8 9 9 9 11
7 6 4 4 4 3 4 6 4 4 4 4 5 7 7 7 8 9 7 8 8 8 9 10 10 11 10 10 9 10 10 10 11 9 8 8 8 9 9 9 10 11
3 4 4 5 4 4 5 5 3 1 3 5 5 5 5 5 6 6 6 7 9 9 10 10 10 10 11 10 9 9 8 11 11 9 8 9 8 8 9 10 11 12
6 4 5 5 4 3 3 2 2 4 3 2 2 5 5 6 7 7 6 7 8 9 8 10 10 11 10 9 9 9 10 9 10 11 8 7 7 10 10 10 12 11
7 5 5 5 5 4 4 2 2 2 4 2 4 4 5 6 7 6 6 6 8 8 9 10 9 9 9 9 11 11 11 10 11 11 9 7 7 10 10 10 10 12
7 6 5 5 6 5 5 4 3 4 3 2 5 6 5 7 6 7 6 6 8 8 9 9 9 8 8 8 9 9 9 10 10 9 9 8 9 8 9 9 12 12
7 6 6 5 5 5 5 4 2 3 2 5 4 6 9 6 6 7 6 6 8 7 8 7 9 8 8 8 8 8 9 10 10 10 10 9 8 9 9 9 9 12
8 7 7 6 6 5 5 4 3 3 2 5 7 7 7 8 6 6 7 7 9 7 7 7 7 7 8 9 8 7 7 8 8 8 9 10 8 8 9 9 10 10
10 8 9 9 8 7 7 6 3 4 3 3 8 8 7 6 8 5 6 7 5 5 6 5 6 6 7 7 7 9 9 8 7 7 7 8 9 8 9 9 10 10
11 12 11 9 7 8 6 5 5 4 3 6 6 8 9 8 7 7 5 6 5 5 6 5 6 6 6 7 7 8 8 8 8 7 7 7 7 8 9 9 9 9
13 11 9 9 8 7 6 5 4 3 5 5 7 9 9 9 9 8 5 6 4 4 4 4 5 6 6 6 6 6 7 7 7 6 7 7 7 8 8 9 9 9
10 8 7 7 7 6 5 6 6 5 6 6 6 7 10 9 8 9 8 7 5 4 4 5 7 6 4 6 7 8 6 7 6 6 6 7 8 8 9 9 10 10
9 8 10 8 8 9 9 9 8 7 6 6 7 7 8 10 8 7 8 8 6 4 3 5 5 5 8 10 8 5 6 5 5 5 5 7 8 9 10 10 10 10
10 11 10 11 11 9 9 9 9 7 6 6 7 9 10 10 9 9 8 7 7 4 4 5 5 5 10 8 8 9 6 4 3 4 5 6 7 8 9 11 11 10
12 11 11 11 10 12 11 10 8 7 7 9 9 9 9 8 10 9 9 8 6 5 5 4 5 8 9 8 9 9 8 5 4 4 5 6 6 7 7 8 10 11
12 13 13 12 13 12 11 9 9 9 9 9 11 10 9 10 10 9 9 8 7 8 5 4 5 8 9 9 9 9 7 5 6 6 7 7 6 7 7 8 9 10
14 15 14 14 13 12 10 10 10 12 11 10 9 9 10 10 9 10 8 9 9 9 7 5 6 8 9 9 9 8 7 5 8 10 7 7 6 6 6 7 8 8
15 15 15 13 13 12 11 12 12 11 10 10 11 12 13 13 12 11 11 10 9 7 6 5 5 8 9 9 9 8 7 8 11 10 8 6 5 6 5 6 7 7
15 15 14 13 13 13 13 14 13 13 13 11 10 10 9 7 7 8 10 10 9 7 6 6 7 7 8 9 9 8 7 8 10 10 8 6 6 5 6 6 6 7
15 16 15 14 14 14 15 15 14 13 12 11 11 11 11 11 12 11 10 11 10 9 9 8 7 7 7 8 8 6 7 9 10 9 7 6 4 5 6 7 7 7
16 17 17 17 14 17 18 16 14 12 14 14 15 13 12 12 10 9 9 11 11 11 11 9 7 7 7 7 7 6 8 10 9 10 7 4 5 5 6 6 7 10
16 16 17 17 17 17 16 16 16 17 14 12 14 12 13 11 10 11 10 11 12 10 12 10 8 7 6 6 7 7 9 8 9 9 7 4 4 5 6 6 8 8
16 18 17 18 18 16 14 16 14 11 13 14 13 12 12 10 10 12 13 13 10 8 9 7 8 6 5 6 6 8 10 10 9 10 8 5 5 4 5 7 7 8
Wind_Speed
3 3 4 3 4 4 3 4 4 3 2 2 1 4 4 4 4 4 3 4 4 4 5 5 5 6 5 5 4 3 4 3 3 4 3 4 5 5 5 7 7 5
4 3 1 2 1 1 2 3 2 3 2 2 3 4 4 2 3 3 4 5 4 5 4 5 5 5 6 5 5 5 4 4 5 3 4 5 4 4 5 6 5 5
2 2 3 3 3 4 4 3 3 3 2 4 3 2 3 1 4 4 4 4 4 5 5 5 5 5 5 5 4 4 4 5 5 5 4 5 4 5 4 5 5 6
3 3 3 2 3 3 2 2 2 1 1 2 2 2 1 1 3 4 4 4 4 5 5 5 6 5 5 5 4 4 4 4 3 3 4 4 5 5 5 5 5 6
5 4 3 2 1 2 1 3 2 2 0 1 1 1 1 3 4 4 4 4 4 5 5 5 5 6 5 5 5 5 5 4 4 4 4 5 5 5 5 5 6 7
2 3 3 3 2 2 2 2 1 1 1 2 1 1 3 3 4 4 4 4 4 4 5 5 5 5 5 5 5 5 4 5 4 4 5 5 5 4 4 6 6 7
4 3 4 3 3 2 2 1 1 1 2 1 1 2 3 4 4 4 4 4 4 4 5 5 5 6 5 5 5 5 5 5 4 4 4 4 4 6 6 6 7 6
5 4 3 3 4 3 2 2 1 1 2 1 2 1 4 4 4 4 3 4 4 4 4 4 5 5 5 5 5 5 6 4 4 4 4 4 4 6 7 5 5 7
4 4 4 4 4 4 3 3 2 0 1 1 2 4 4 4 4 4 4 3 4 4 4 4 5 4 4 5 5 5 5 5 4 4 4 5 5 5 5 5 7 7
5 4 4 4 4 4 4 3 2 1 1 3 3 4 5 3 4 4 3 3 3 4 4 4 5 5 4 4 4 4 4 5 5 4 4 5 4 5 5 5 5 6
6 5 5 5 4 3 4 3 2 1 0 3 4 4 5 5 3 3 3 3 3 4 4 4 4 4 4 4 4 4 4 4 4 4 5 5 5 4 5 5 5 5
7 6 6 6 5 5 5 4 2 1 2 2 5 5 5 4 5 3 3 3 2 2 3 3 3 3 3 3 4 4 4 4 3 4 4 4 5 4 5 5 5 5
7 8 7 6 5 5 4 4 3 2 2 4 4 5 6 5 4 4 3 3 2 2 3 3 3 3 3 4 3 3 3 3 4 4 4 4 4 4 5 5 5 5
8 7 6 6 4 4 4 4 3 3 4 4 5 6 6 6 6 5 3 3 2 2 1 1 2 3 4 3 3 3 3 3 3 3 3 4 4 4 4 4 5 5
6 5 5 5 4 5 4 4 4 4 4 5 4 4 4 5 5 5 5 4 3 1 1 1 1 2 2 3 4 4 3 3 3 3 3 4 5 5 5 5 5 5
6 5 6 6 5 6 6 6 6 5 4 4 5 5 5 5 5 5 5 5 4 1 0 1 1 1 2 4 2 2 3 2 2 2 2 3 4 5 6 6 5 5
6 7 6 7 7 6 6 6 6 5 4 5 5 6 7 6 6 6 5 4 4 2 1 2 2 1 4 4 3 3 2 2 0 1 2 3 4 4 5 6 6 6
7 7 7 7 7 7 7 7 5 5 5 6 6 6 5 5 6 6 5 5 4 3 2 2 2 2 4 5 4 3 2 2 2 1 1 3 3 4 3 4 6 6
7 8 8 8 8 8 7 6 6 6 6 6 7 7 6 7 7 6 6 5 4 5 4 3 3 3 2 4 5 4 3 1 3 3 3 3 3 3 4 4 5 5
8 8 9 9 8 7 7 7 7 7 7 6 5 5 6 7 6 7 6 6 6 6 4 3 3 2 3 3 4 4 3 3 4 4 4 3 3 3 3 4 4 4
9 9 9 8 8 8 7 8 8 7 7 6 6 7 7 7 7 7 7 6 5 4 4 3 3 2 2 2 3 2 4 5 4 4 3 3 2 2 2 3 3 3
9 9 9 8 8 8 8 9 8 8 8 7 6 6 5 4 4 4 6 7 6 5 4 4 4 4 2 3 2 2 6 3 4 4 4 3 3 2 3 3 3 3
9 9 9 9 9 9 9 9 9 8 8 6 7 7 6 6 7 6 6 6 6 6 6 5 4 2 2 1 1 4 5 4 4 4 3 3 2 2 2 3 3 4
7 8 9 9 9 11 11 10 8 7 8 7 9 8 7 7 6 6 5 5 6 7 6 6 5 3 2 1 2 5 5 5 4 4 4 2 1 1 2 2 3 6
7 8 8 8 9 10 9 9 9 10 8 7 8 7 8 6 5 6 5 4 5 6 7 7 5 3 4 3 4 7 6 5 4 4 4 2 1 1 2 2 3 3
7 9 10 9 11 10 8 9 7 6 7 8 8 7 7 6 5 6 7 6 5 5 5 4 4 4 3 4 5 7 9 6 4 5 4 3 2 1 2 3 3 4
Wind_Direction
197 169 177 190 214 209 214 211 226 242 251 246 268 294 301 299 330 333 350 30 30 27 6 2 359 5 1 351 349 360 23 11 9 16 24 23 23 10 1 347 344 343
198 195 192 181 217 240 229 213 226 223 275 307 278 301 298 327 346 20 25 18 15 19 5 8 5 5 359 351 348 3 15 15 20 3 13 26 9 4 4 346 337 329
200 190 165 169 201 218 228 219 204 229 256 284 311 286 315 2 38 23 24 34 16 9 10 6 7 5 357 350 344 2 20 19 19 350 18 17 356 11 348 341 348 345
230 212 208 211 168 222 243 190 218 292 254 291 345 287 18 53 70 45 27 26 21 16 6 15 9 358 356 349 346 6 17 28 7 358 26 15 10 353 351 342 348 350
204 210 217 239 212 153 134 170 216 237 242 256 335 38 94 93 72 54 37 28 26 16 16 12 6 7 355 351 351 5 17 15 5 10 34 28 4 356 344 351 352 348
245 212 199 202 214 153 148 188 223 291 296 60 5 96 121 114 90 72 46 39 22 25 18 15 9 4 359 350 351 13 10 14 359 15 39 27 356 350 349 355 352 347
231 206 206 204 205 169 165 222 275 307 293 162 75 103 134 113 93 82 63 51 42 29 27 14 7 4 358 352 358 8 10 15 5 22 43 18 357 1 6 359 352 336
233 219 200 180 187 184 172 219 251 279 296 70 140 127 124 114 102 90 70 56 52 36 31 23 13 6 358 356 8 5 11 8 11 15 28 15 11 13 354 359 341 347
229 217 199 189 178 188 195 221 238 266 329 105 166 119 108 115 119 103 81 66 62 46 35 28 14 7 359 8 7 8 5 3 4 14 12 5 8 0 352 339 358 354
225 226 207 205 192 202 205 223 241 257 158 102 110 129 122 110 106 104 91 73 65 49 43 24 14 7 6 12 5 359 359 355 358 11 14 10 1 346 345 346 351 345
225 217 211 211 212 210 223 227 248 264 95 127 128 124 133 129 110 105 101 81 75 63 44 28 9 360 9 3 357 354 348 349 353 11 18 13 3 355 354 347 354 350
220 216 217 212 212 216 225 226 234 202 116 141 144 144 141 143 139 131 127 118 101 85 68 33 357 5 12 358 348 346 352 350 351 20 22 13 3 358 353 356 352 347
214 215 213 215 215 216 223 215 225 197 153 155 161 157 157 155 147 126 124 127 116 70 53 19 351 350 357 358 348 357 354 349 357 14 22 12 5 355 354 346 348 348
213 211 210 214 218 228 223 225 233 209 149 164 148 160 168 165 163 154 139 124 118 87 341 359 0 351 355 355 347 355 356 354 0 1 7 16 5 4 356 351 343 343
206 207 208 208 207 208 219 227 233 222 162 171 173 171 168 165 160 157 148 138 110 96 332 331 11 344 301 345 339 345 359 349 346 0 12 18 11 7 5 357 347 342
196 201 200 200 196 202 210 213 212 209 180 171 179 176 168 165 162 162 162 158 158 199 274 251 283 260 330 356 360 318 317 310 332 22 20 30 22 7 360 1 346 336
189 202 195 200 204 206 214 212 210 198 172 165 174 178 177 178 172 170 175 175 170 165 275 281 304 264 352 332 353 336 313 262 140 39 31 49 43 36 7 346 341 336
195 195 198 206 199 210 209 209 189 184 184 181 180 181 193 182 182 191 175 186 170 164 206 252 277 300 344 330 339 338 302 251 173 134 99 64 60 48 12 355 339 337
191 195 201 203 206 208 208 195 190 195 199 185 196 194 172 188 198 184 197 191 188 195 219 224 260 282 343 333 331 330 307 215 153 138 117 93 79 56 32 7 351 342
194 196 201 206 205 206 201 196 195 205 205 205 189 177 187 202 193 200 197 199 201 206 214 229 251 271 355 331 321 315 282 177 133 127 117 102 89 62 28 2 353 345
198 199 203 203 204 205 201 202 202 205 204 206 192 191 191 198 196 200 210 206 208 203 209 233 248 285 321 331 315 330 147 145 126 117 109 94 78 40 7 338 329 330
198 200 202 199 201 204 205 207 204 200 201 201 205 210 212 199 204 206 206 206 205 193 200 238 246 252 301 344 332 110 150 130 130 120 111 101 33 0 358 336 320 331
200 200 200 200 199 203 210 211 205 207 207 192 201 207 201 202 203 202 203 199 190 192 204 230 251 247 278 301 303 150 139 128 134 112 108 82 358 316 329 330 327 323
211 204 204 201 199 209 211 210 209 208 203 192 199 201 206 208 200 206 207 197 192 200 206 209 231 218 202 202 190 168 156 155 152 135 110 62 332 307 337 335 330 353
207 212 213 206 208 220 212 209 206 205 203 192 204 202 206 196 186 197 198 200 218 212 213 207 221 212 180 196 172 170 159 151 150 139 132 91 337 308 327 347 341 340
205 210 214 203 210 214 218 221 209 200 197 196 204 201 199 186 190 197 198 207 205 211 225 216 207 241 199 196 159 171 165 149 142 147 159 182 246 174 8 340 336 347